Regional Weather Roundup
Issued by NWS Burlington, VT

Home | Current Version | Previous Version | Text Only | Print | Product List | Glossary On
Versions: 1 2 3 4 5 6 7 8 9 10 11 12 13 14 15 16 17 18 19 20 21 22 23 24 25 26 27 28 29 30 31 32 33 34 35 36 37 38 39 40 41 42 43 44 45 46 47 48 49 50
000
ASUS41 KBTV 291210
RWRBTV
VERMONT REGIONAL WEATHER ROUNDUP
NATIONAL WEATHER SERVICE BURLINGTON VT
800 AM EDT THU JUN 29 2017

NOTE: "FAIR" INDICATES FEW OR NO CLOUDS BELOW 12,000 FEET WITH NO
SIGNIFICANT WEATHER AND/OR OBSTRUCTIONS TO VISIBILITY.

* THESE REPORTS ARE NOT UNDER NWS QUALITY CONTROL AND/OR DO NOT
  REPORT WEATHER SUCH AS PRECIPITATION AND FOG.

VTZ001>019-291300-
_____VERMONT_____


CITY           SKY/WX    TMP DP  RH WIND       PRES   REMARKS
BURLINGTON     CLOUDY    65  53  65 S8        30.06S
6HR MIN TEMP:  56; 6HR MAX TEMP:  65;

MONTPELIER     CLOUDY    52  52 100 CALM      30.12S
6HR MIN TEMP:  47; 6HR MAX TEMP:  52;

MORRISVILLE    CLOUDY    52  52 100 CALM      30.09F
6HR MIN TEMP:  50; 6HR MAX TEMP:  52;

ST. JOHNSBURY*   N/A     52  52 100 MISG      30.09R
6HR MIN TEMP:  49; 6HR MAX TEMP:  53;

LYNDONVILLE*   FOG       52  51  98 CALM      30.12R VSB<1/4
6HR MIN TEMP:  48; 6HR MAX TEMP:  52;

MIDDLEBURY*    FAIR      63  54  74 CALM      30.09S
6HR MIN TEMP:  54; 6HR MAX TEMP:  63;

RUTLAND*       PTSUNNY   61  54  77 E3        30.10F
6HR MIN TEMP:  54; 6HR MAX TEMP:  61;

SPRINGFIELD    CLOUDY    56  52  86 CALM      30.12S
6HR MIN TEMP:  51; 6HR MAX TEMP:  56;

HIGHGATE*      FAIR      63  53  70 S5        30.05R
6HR MIN TEMP:  58; 6HR MAX TEMP:  63;

NEWPORT*       FAIR      59  55  85 CALM      30.09R
6HR MIN TEMP:  51; 6HR MAX TEMP:  60;

BENNINGTON     MOSUNNY   64  55  72 CALM      30.13R
6HR MIN TEMP:  52; 6HR MAX TEMP:  64;

SUTTON*          N/A     57 N/A N/A MISG        N/A

_____LAKE CHAMPLAIN_____


CITY           SKY/WX    TMP DP  RH WIND       PRES   REMARKS
BURTON ISLAND*   N/A     64  55  72 S13         N/A
COLCHESTER RF*   N/A     63  55  77 S18         N/A
DIAMOND ISL*     N/A     63  54  72 S9          N/A

$$

NYZ007-026>031-035-052-083-087-291300-
_____NORTHERN NEW YORK_____


CITY           SKY/WX    TMP DP  RH WIND       PRES   REMARKS
PLATTSBURGH    CLOUDY    61  53  75 SW3       30.05R
6HR MIN TEMP:  52; 6HR MAX TEMP:  61;

SARANAC LAKE   CLOUDY    57  54  89 SW6       30.08R
6HR MIN TEMP:  42; 6HR MAX TEMP:  57;

MASSENA        CLOUDY    62  56  80 SW6       30.03S
6HR MIN TEMP:  55; 6HR MAX TEMP:  62;

OGDENSBURG*    LGT RAIN  63  58  82 S3        30.02F
6HR MIN TEMP:  56; 6HR MAX TEMP:  64;

POTSDAM*       CLOUDY    64  59  82 SW7       30.04S
WATERTOWN      CLOUDY    63  61  93 S3        30.03R
6HR MIN TEMP:  60; 6HR MAX TEMP:  65; 6HR PCP:  0.01;

FT DRUM        CLOUDY    62  58  86 SW5       30.03S
6HR MIN TEMP:  60; 6HR MAX TEMP:  66; 6HR PCP: TRACE;

GLENS FALLS    MOSUNNY   61  55  81 SW5       30.10S
6HR MIN TEMP:  52; 6HR MAX TEMP:  61;


$$
NHZ002-005-011-291300-
_____NEW HAMPSHIRE_____


CITY           SKY/WX    TMP DP  RH WIND       PRES   REMARKS
LEBANON        CLOUDY    57  54  89 CALM      30.11R
6HR MIN TEMP:  49; 6HR MAX TEMP:  57;

KEENE          CLOUDY    57  54  89 CALM      30.13S
6HR MIN TEMP:  51; 6HR MAX TEMP:  57;

MT WASHINGTON  MOSUNNY   41  39  93 W39         N/A  WCI  28
6HR MIN TEMP:  38; 6HR MAX TEMP:  43;

PLYMOUTH       CLOUDY    52  51  97 CALM      30.11S
6HR MIN TEMP:  48; 6HR MAX TEMP:  52;

WHITEFIELD     CLOUDY    58  53  84 CALM      30.10S
6HR MIN TEMP:  44; 6HR MAX TEMP:  58;


$$

_____REGIONAL QUEBEC LOCATIONS_____


CITY           SKY/WX    TMP DP  RH WIND       PRES   REMARKS
MONTREAL       CLOUDY    64  55  72 SW8       30.02R
QUEBEC CITY    MOSUNNY   59  57  94 VRB2      30.01F
SHERBROOKE     CLOUDY    57  54  88 SE3       30.06R

_____REGIONAL ONTARIO LOCATIONS_____


CITY           SKY/WX    TMP DP  RH WIND       PRES   REMARKS
OTTAWA         CLOUDY    61  57  88 SW5       30.00S

______KEY______
VSB  - VISIBILITY IN MILES
WCI  - WIND CHILL INDEX
HX   - HEAT INDEX
$$
NNNN




USA.gov is the U.S. government's official web portal to all federal, state and local government web resources and services.